Regional Weather Roundup
Issued by NWS

Home | Current Version | Previous Version | Graphics & Text | Print | Product List | Glossary On
Versions: 1 2 3 4 5 6 7 8 9 10 11 12 13 14 15 16 17 18 19 20 21 22 23 24 25 26 27 28 29 30 31 32 33 34 35 36 37 38 39 40 41 42 43 44 45 46 47 48 49 50
000
ASUS44 KMEG 100510
RWRTN
TENNESSEE HOURLY STATE WEATHER ROUNDUP
NATIONAL WEATHER SERVICE MEMPHIS TN
1100 PM CST FRI DEC 09 2016

TNZ002-004-019-021-049-052-054-088>092-100600-
WEST TENNESSEE

CITY           SKY/WX    TMP DP  RH WIND       PRES   REMARKS
MEMPHIS INTL   CLEAR     28  19  69 N3        30.61R
NWS MEMPHIS      N/A     24 N/A N/A MISG        N/A
JACKSON        CLEAR     22  19  89 CALM      30.61R
DYERSBURG      CLEAR     23  19  86 CALM      30.61R
UNION CITY     CLEAR     18  14  86 CALM      30.60R
PARIS          CLEAR     18  12  79 CALM      30.59S
HUNTINGDON     CLEAR     23  18  80 CALM      30.59R
LEXINGTON      CLEAR     19  18  93 CALM      30.58S
$$

TNZ008-025-027-028-033-062-065-066-100600-
NORTH MIDDLE TENNESSEE

CITY           SKY/WX    TMP DP  RH WIND       PRES   REMARKS
NASHVILLE      CLEAR     26  16  65 N5        30.60R WCI  20
PORTLAND       PTCLDY    21  18  86 CALM      30.58R
CLARKSVILLE    CLEAR     23  14  68 CALM      30.60R
SMYRNA         CLEAR     22  17  81 NW3       30.60R
GALLATIN       CLOUDY    23  16  74 CALM      30.62R
CROSSVILLE     CLEAR     20  15  81 CALM      30.48S
$$

TNZ061-075-076-078-094-096-097-100600-
SOUTH MIDDLE TENNESSEE

CITY           SKY/WX    TMP DP  RH WIND       PRES   REMARKS
FAYETTEVILLE   PTCLDY    25  19  80 CALM      30.54S
TULLAHOMA      CLEAR     19  12  73 CALM      30.53F
WINCHESTER     CLEAR     19  16  86 CALM      30.54S
MCMINNVILLE    CLEAR     21  16  79 CALM        N/A
COLUMBIA       CLEAR     21  21 100 CALM      30.56S
SHELBYVILLE    CLEAR     21  19  93 CALM      30.57S
$$

TNZ017-018-042-046-047-100600-
NORTHEAST TENNESSEE

CITY           SKY/WX    TMP DP  RH WIND       PRES   REMARKS
TRI CITIES     CLEAR     20  14  77 CALM      30.50S
ELIZABETHTON     N/A     19  16  86 CALM      30.49F
$$

TNZ012-013-036-069-073-074-100600-
CENTRAL EAST TENNESSEE

CITY           SKY/WX    TMP DP  RH WIND       PRES   REMARKS
KNOXVILLE      CLEAR     25  16  68 NE5       30.52S WCI  19
OAK RIDGE      CLEAR     25  17  72 CALM      30.54F
DOWNTOWN KNOXV CLEAR     25  18  74 CALM      30.54S
GATLINBURG     CLEAR     19  16  86 CALM      30.53R
MORRISTOWN     PTCLDY    21  18  86 CALM      30.50S
JACKSBORO      CLEAR     21  18  86 CALM      30.55F
$$

TNZ083-085-099-100600-
SOUTHEAST TENNESSEE

CITY           SKY/WX    TMP DP  RH WIND       PRES   REMARKS
CHATTANOOGA    CLEAR     28  19  69 NW3       30.55R
$$

SKY/WX REPORTED AS FAIR MEANS FEW OR NO CLOUDS BELOW
12 THOUSAND FEET.




USA.gov is the U.S. government's official web portal to all federal, state and local government web resources and services.